[[{"header":{"parameterUnit":"m.s-1","parameterCategory":1,"la1":30.2991,"la2":30.254,"lo1":-89.0895,"lo2":-89.0444,"dy":0.0017,"dx":0.0017,"nx":28,"ny":28,"refTime":"2025-08-18T09:00:00:Z","depth":0,"parameterNumber":2,"parameterNumberName":"U-component_of_WINDS"},"data":[0,0,0,0,0,0,0,0,0,0,0,0,0,0,0,0,0,0,0,0,0,0,0,0,0,0,0,0,0,0,0,0,0,0,0,0,0,0,0,0,0,0,0,0,0,0,0,0,0,0,0,0,0,0,0,0,0,0,-0.6122,-0.6122,0,-0.6137,-0.6137,-0.6137,-0.6103,-0.6102,-0.6101,-0.61,-0.6116,-0.6117,-0.6119,0,0,0,0,0,0,0,0,0,0,0,0,0,-0.6066,-0.6067,-0.6122,-0.6122,-0.6123,-0.6137,-0.6137,-0.6137,-0.6104,-0.6102,-0.6101,-0.61,-0.6115,-0.6117,-0.6119,0,0,0,0,0,0,0,0,0,0,0,0,0,-0.6087,-0.6068,-0.6122,-0.6108,-0.6106,-0.6137,-0.6137,-0.6137,-0.6104,-0.6102,-0.6101,-0.6099,-0.6115,-0.6117,-0.6119,-0.6165,0,0,-0.6126,-0.6126,0,0,0,0,0,0,0,0,-0.6085,-0.6089,-0.611,-0.6109,-0.6107,-0.6117,-0.6123,-0.6146,-0.6104,-0.6105,-0.61,-0.6098,-0.6117,-0.6119,-0.6126,-0.6165,-0.6166,-0.6126,-0.6127,-0.6128,-0.6129,0,0,0,0,0,0,0,-0.6084,-0.6088,-0.6128,-0.611,-0.6109,-0.61,-0.6102,-0.6127,-0.612,-0.6105,-0.6102,-0.6104,-0.6117,-0.6124,-0.6126,-0.6166,-0.6126,-0.6128,-0.6129,-0.613,-0.6244,-0.6246,0,0,0,0,0,0,-0.6084,-0.6087,-0.6128,-0.6128,-0.6092,-0.6103,-0.6104,-0.6115,-0.612,-0.6119,-0.6106,-0.6103,-0.6121,-0.6123,-0.6126,-0.618,-0.6128,-0.613,-0.6131,-0.6242,-0.6244,-0.6246,0,0,0,0,0,0,-0.6083,-0.6088,-0.6127,-0.6107,-0.6111,-0.6105,-0.6118,-0.6116,-0.6123,-0.612,-0.6119,-0.6114,-0.612,-0.6123,-0.6155,-0.618,-0.6131,-0.6133,-0.624,-0.6243,-0.6245,-0.6288,0,0,0,0,0,0,-0.6082,-0.6088,-0.6105,-0.6108,-0.6112,-0.6156,-0.612,-0.6118,-0.6127,-0.6123,-0.6128,-0.6127,-0.6119,-0.6152,-0.6157,-0.6182,-0.6134,-0.6238,-0.6241,-0.6244,-0.6284,-0.6292,-0.6298,0,0,0,0,0,-0.608,-0.6117,-0.6106,-0.6111,-0.6134,-0.6157,-0.616,-0.6149,-0.6129,-0.6147,-0.6145,-0.6127,-0.6176,-0.6156,-0.6161,-0.6187,-0.6236,-0.624,-0.6244,-0.6281,-0.629,-0.6298,0,0,0,0,0,0,-0.6118,-0.6117,-0.6105,-0.6144,-0.6151,-0.6152,-0.6173,-0.6159,-0.6172,-0.6168,-0.6154,-0.6155,-0.619,-0.6192,-0.6169,-0.6231,-0.6203,-0.6208,-0.6229,-0.6238,-0.6245,-0.6244,-0.6136,0,0,0,0,0,-0.6131,-0.615,-0.6148,-0.6182,-0.6186,-0.6179,-0.6189,-0.618,-0.6187,-0.6189,-0.619,-0.6197,-0.6214,-0.6226,-0.6242,-0.6284,-0.6285,-0.6304,-0.6311,-0.6317,-0.6322,-0.6345,-0.6354,-0.6259,-0.6259,-0.6259,0,0,-0.6158,-0.6159,-0.6172,-0.619,-0.6194,-0.6215,-0.6182,-0.6205,-0.622,-0.6193,-0.6223,-0.6224,-0.6231,-0.6269,-0.6285,-0.6271,-0.6348,-0.6322,-0.6327,-0.6328,-0.635,-0.6359,-0.6367,-0.6262,-0.6261,-0.6261,0,0,-0.6217,-0.622,-0.6249,-0.6254,-0.6261,-0.6256,-0.6263,-0.6266,-0.6265,-0.6295,-0.6275,-0.6293,-0.6323,-0.6329,-0.6336,-0.6397,-0.6382,-0.6403,-0.6439,-0.6461,-0.6469,-0.6475,-0.6498,-0.6506,-0.6407,-0.6407,-0.6408,0,-0.625,-0.6279,-0.6266,-0.629,-0.6299,-0.6275,-0.6304,-0.631,-0.6322,-0.6328,-0.6312,-0.6349,-0.6352,-0.6391,-0.6406,-0.6412,-0.642,-0.6402,-0.6469,-0.6475,-0.6481,-0.6502,-0.6511,-0.641,-0.641,-0.6409,-0.6409,0,-0.6319,-0.634,-0.6363,-0.6374,-0.6385,-0.6412,-0.6403,-0.6416,-0.6405,-0.6402,-0.6433,-0.6436,-0.6452,-0.646,-0.6451,-0.6498,-0.6489,-0.6471,-0.6442,-0.6493,-0.6513,-0.6521,-0.6414,-0.6413,-0.6412,-0.6411,0,0,-0.6404,-0.6407,-0.6416,-0.6421,-0.6427,-0.6443,-0.6468,-0.6484,-0.6495,-0.6504,-0.6525,-0.655,-0.6534,-0.6542,-0.6532,-0.6552,-0.6601,-0.6532,-0.6531,-0.6545,-0.6654,-0.6668,-0.6678,-0.659,-0.6592,-0.6593,-0.6653,0,-0.6463,-0.6507,-0.6496,-0.6539,-0.6559,-0.6536,-0.6559,-0.6565,-0.6562,-0.6578,-0.6575,-0.6594,-0.657,-0.6575,-0.6593,-0.6591,-0.6623,-0.6587,-0.6611,-0.6612,-0.6611,-0.6688,-0.6703,-0.676,-0.6661,-0.6662,-0.6663,0,-0.6538,-0.6549,-0.6595,-0.6598,-0.6605,-0.6626,-0.6639,-0.6654,-0.6661,-0.6657,-0.6666,-0.6653,-0.6678,-0.6649,-0.6684,-0.666,-0.6669,-0.6669,-0.6671,-0.6674,-0.6641,-0.6693,-0.6777,-0.6786,-0.6675,-0.6674,-0.6673,0,-0.6596,-0.6623,-0.6653,-0.6658,-0.6662,-0.6677,-0.6679,-0.6684,-0.6694,-0.6705,-0.6711,-0.6726,-0.6734,-0.6745,-0.6736,-0.6715,-0.6773,-0.6742,-0.6771,-0.6772,-0.6785,-0.6785,-0.6873,-0.679,-0.679,-0.6789,-0.6789,0,-0.6663,-0.6693,-0.668,-0.6699,-0.6731,-0.6717,-0.6749,-0.6749,-0.6753,-0.6772,-0.6753,-0.6771,-0.6758,-0.6775,-0.6768,-0.6798,-0.6802,-0.68,-0.6798,-0.6802,-0.6803,-0.6809,-0.6805,-0.6792,-0.6791,-0.6791,-0.679,0,-0.6734,-0.6726,-0.6759,-0.6759,-0.676,-0.6784,-0.6784,-0.6802,-0.6798,-0.6822,-0.6827,-0.682,-0.6839,-0.6831,-0.6851,-0.6846,-0.6886,-0.6878,-0.6884,-0.6882,-0.6912,-0.6909,-0.7008,-0.702,-0.6928,-0.6929,-0.693,0,-0.6778,-0.68,-0.6803,-0.6814,-0.6817,-0.6835,-0.6845,-0.6833,-0.6844,-0.6853,-0.687,-0.6887,-0.69,-0.6931,-0.6929,-0.6944,-0.6937,-0.697,-0.6939,-0.6943,-0.6938,-0.6938,-0.694,-0.6977,-0.6978,-0.6979,-0.698,0,-0.6857,-0.6852,-0.6867,-0.6881,-0.6893,-0.6904,-0.6912,-0.6922,-0.691,-0.6924,-0.6943,-0.6953,-0.6973,-0.6991,-0.7004,-0.7007,-0.6992,-0.6989,-0.6997,-0.7002,-0.7005,-0.7004,-0.6902,-0.6987,-0.6987,-0.6986,-0.6986,-0.6985,-0.6916,-0.6935,-0.694,-0.6957,-0.6962,-0.6971,-0.6987,-0.6985,-0.7001,-0.7016,-0.7008,-0.703,-0.7036,-0.7052,-0.7057,-0.7074,-0.7061,-0.7072,-0.7075,-0.7078,-0.7082,-0.7001,-0.7076,-0.7076,-0.7076,-0.7076,-0.7076,0,-0.6995,-0.6997,-0.7013,-0.7026,-0.704,-0.7023,-0.7032,-0.7045,-0.7065,-0.7071,-0.7084,-0.7106,-0.7123,-0.7122,-0.7137,-0.7151,-0.7145,-0.7156,-0.7155,-0.7156,-0.7093,-0.7085,-0.7161,-0.7161,-0.7161,-0.7161,-0.7161,-0.7161,-0.7038,-0.7069,-0.7064,-0.7097,-0.7099,-0.7121,-0.7127,-0.7135,-0.714,-0.7165,-0.7179,-0.7178,-0.7181,-0.7196,-0.7211,-0.721,-0.7217,-0.7231,-0.7228,-0.7169,-0.716,-0.7152,-0.7145,-0.7233,-0.7233,-0.729,-0.729,-0.7291]},{"header":{"parameterUnit":"m.s-1","parameterCategory":1,"la1":30.2991,"la2":30.254,"lo1":-89.0895,"lo2":-89.0444,"dy":0.0017,"dx":0.0017,"nx":28,"ny":28,"refTime":"2025-08-18T09:00:00:Z","depth":0,"parameterNumber":3,"parameterNumberName":"V-component_of_WINDS"},"data":[0,0,0,0,0,0,0,0,0,0,0,0,0,0,0,0,0,0,0,0,0,0,0,0,0,0,0,0,0,0,0,0,0,0,0,0,0,0,0,0,0,0,0,0,0,0,0,0,0,0,0,0,0,0,0,0,0,0,-1.5037,-1.5038,0,-1.5109,-1.511,-1.511,-1.5123,-1.5122,-1.5121,-1.5121,-1.5191,-1.5193,-1.5196,0,0,0,0,0,0,0,0,0,0,0,0,0,-1.4908,-1.491,-1.5037,-1.5038,-1.5039,-1.5109,-1.511,-1.5111,-1.5123,-1.5122,-1.5121,-1.5121,-1.519,-1.5193,-1.5196,0,0,0,0,0,0,0,0,0,0,0,0,0,-1.497,-1.4911,-1.5037,-1.5053,-1.5056,-1.5109,-1.511,-1.5111,-1.5123,-1.5122,-1.5121,-1.512,-1.5189,-1.5193,-1.5196,-1.5237,0,0,-1.5208,-1.5209,0,0,0,0,0,0,0,0,-1.4966,-1.4975,-1.505,-1.5052,-1.5055,-1.5106,-1.509,-1.5153,-1.5123,-1.5097,-1.5121,-1.512,-1.5163,-1.5169,-1.5184,-1.524,-1.5243,-1.5208,-1.521,-1.5212,-1.5213,0,0,0,0,0,0,0,-1.4962,-1.4972,-1.5065,-1.5051,-1.5054,-1.5056,-1.5064,-1.5102,-1.5134,-1.5099,-1.51,-1.5109,-1.5164,-1.5181,-1.5186,-1.5244,-1.5208,-1.5211,-1.5213,-1.5215,-1.5337,-1.5338,0,0,0,0,0,0,-1.4955,-1.4968,-1.5063,-1.5067,-1.5008,-1.5059,-1.5068,-1.509,-1.5134,-1.514,-1.511,-1.5109,-1.5175,-1.5182,-1.5189,-1.5239,-1.5212,-1.5215,-1.5217,-1.5336,-1.5337,-1.5338,0,0,0,0,0,0,-1.4952,-1.4964,-1.506,-1.5018,-1.5031,-1.5063,-1.5087,-1.5092,-1.5109,-1.5142,-1.5147,-1.5121,-1.5175,-1.5183,-1.5225,-1.5241,-1.5217,-1.522,-1.5335,-1.5336,-1.5338,-1.5339,0,0,0,0,0,0,-1.4949,-1.4962,-1.4979,-1.5018,-1.5033,-1.5096,-1.5088,-1.5094,-1.5115,-1.5116,-1.5154,-1.5159,-1.5175,-1.522,-1.5229,-1.5246,-1.5223,-1.5333,-1.5335,-1.5337,-1.5338,-1.5341,-1.5343,0,0,0,0,0,-1.4944,-1.4976,-1.498,-1.4991,-1.5054,-1.5097,-1.5105,-1.5124,-1.5117,-1.5133,-1.5154,-1.5158,-1.5238,-1.5224,-1.5234,-1.5253,-1.5332,-1.5335,-1.5337,-1.5337,-1.534,-1.5343,0,0,0,0,0,0,-1.4936,-1.4981,-1.4986,-1.5032,-1.5061,-1.5099,-1.512,-1.5127,-1.5157,-1.5156,-1.5176,-1.5185,-1.5225,-1.5243,-1.5226,-1.5294,-1.5285,-1.5289,-1.5281,-1.5284,-1.5287,-1.5281,-1.5226,0,0,0,0,0,-1.494,-1.4972,-1.5009,-1.5046,-1.5061,-1.5088,-1.5107,-1.5119,-1.515,-1.5161,-1.5186,-1.5214,-1.5246,-1.5266,-1.5297,-1.5341,-1.5349,-1.5359,-1.5361,-1.5363,-1.5367,-1.5391,-1.5395,-1.5346,-1.5346,-1.5346,0,0,-1.4947,-1.4976,-1.4995,-1.5045,-1.5069,-1.5101,-1.5098,-1.5132,-1.5156,-1.5166,-1.5207,-1.5226,-1.5259,-1.5302,-1.5322,-1.5318,-1.5382,-1.5366,-1.5368,-1.537,-1.5394,-1.5398,-1.5402,-1.5348,-1.5347,-1.5347,0,0,-1.4978,-1.5003,-1.5037,-1.5061,-1.5097,-1.5116,-1.5123,-1.5161,-1.5175,-1.5216,-1.5225,-1.5253,-1.5307,-1.533,-1.5349,-1.5389,-1.5393,-1.5398,-1.5412,-1.5435,-1.5439,-1.5442,-1.5456,-1.5461,-1.5402,-1.5402,-1.5402,0,-1.4982,-1.5032,-1.5053,-1.5087,-1.5108,-1.5121,-1.5154,-1.5176,-1.522,-1.5234,-1.523,-1.5298,-1.5321,-1.537,-1.5379,-1.5395,-1.5404,-1.5394,-1.5437,-1.5441,-1.5444,-1.5457,-1.5462,-1.5402,-1.5402,-1.5402,-1.5402,0,-1.5036,-1.507,-1.5092,-1.5136,-1.516,-1.5194,-1.5218,-1.524,-1.525,-1.5268,-1.531,-1.5339,-1.5376,-1.5388,-1.5397,-1.5438,-1.5434,-1.5433,-1.5424,-1.5449,-1.5461,-1.5467,-1.5403,-1.5403,-1.5403,-1.5403,0,0,-1.5062,-1.5118,-1.5125,-1.5145,-1.5187,-1.5213,-1.5247,-1.5284,-1.5302,-1.5333,-1.5361,-1.5407,-1.5406,-1.5428,-1.544,-1.546,-1.5489,-1.5457,-1.5458,-1.5461,-1.5535,-1.5535,-1.554,-1.5493,-1.5494,-1.5495,-1.5532,0,-1.5097,-1.5159,-1.5178,-1.5229,-1.5261,-1.5274,-1.5303,-1.5331,-1.5349,-1.5378,-1.5397,-1.5429,-1.5427,-1.544,-1.546,-1.5481,-1.5504,-1.5479,-1.5518,-1.5519,-1.5509,-1.5547,-1.5547,-1.5581,-1.5537,-1.5538,-1.5538,0,-1.5146,-1.5178,-1.5232,-1.527,-1.5284,-1.531,-1.5346,-1.5374,-1.5406,-1.5417,-1.5442,-1.5452,-1.5487,-1.5477,-1.5524,-1.5507,-1.5524,-1.5537,-1.5538,-1.5542,-1.553,-1.5551,-1.5592,-1.5596,-1.5546,-1.5546,-1.5545,0,-1.5159,-1.5216,-1.5256,-1.5273,-1.5318,-1.5336,-1.5355,-1.5387,-1.5408,-1.5439,-1.5453,-1.5487,-1.5505,-1.5531,-1.555,-1.5541,-1.5596,-1.5587,-1.5606,-1.5605,-1.5616,-1.5615,-1.5659,-1.5628,-1.5628,-1.5628,-1.5628,0,-1.5195,-1.5228,-1.5262,-1.5287,-1.5324,-1.5346,-1.5381,-1.5401,-1.5429,-1.5457,-1.547,-1.5495,-1.552,-1.5548,-1.5563,-1.56,-1.5608,-1.5618,-1.5622,-1.5617,-1.5615,-1.5627,-1.5625,-1.5629,-1.5629,-1.5629,-1.5629,0,-1.5215,-1.524,-1.5284,-1.5324,-1.5335,-1.536,-1.5394,-1.5417,-1.5436,-1.5471,-1.5481,-1.551,-1.5545,-1.5567,-1.561,-1.5621,-1.5661,-1.5664,-1.565,-1.5652,-1.5669,-1.5666,-1.5722,-1.573,-1.5694,-1.5694,-1.5695,0,-1.5236,-1.5262,-1.5305,-1.5325,-1.5345,-1.5377,-1.5399,-1.5422,-1.5444,-1.5483,-1.5502,-1.5537,-1.5567,-1.5621,-1.5646,-1.5679,-1.5682,-1.57,-1.5687,-1.5681,-1.5682,-1.568,-1.5682,-1.5701,-1.5701,-1.5702,-1.5702,0,-1.5271,-1.5282,-1.5314,-1.5351,-1.5377,-1.5406,-1.5435,-1.5451,-1.5479,-1.5503,-1.5539,-1.5562,-1.5607,-1.5642,-1.5677,-1.5696,-1.5703,-1.5706,-1.5712,-1.5706,-1.5697,-1.5702,-1.5655,-1.5704,-1.5704,-1.5704,-1.5704,-1.5704,-1.5292,-1.5315,-1.5349,-1.5384,-1.5409,-1.5436,-1.5461,-1.5483,-1.5514,-1.5554,-1.5565,-1.5602,-1.5633,-1.5682,-1.5702,-1.5731,-1.5728,-1.5737,-1.5739,-1.5741,-1.5741,-1.5693,-1.5737,-1.5737,-1.5737,-1.5737,-1.5737,0,-1.5327,-1.5349,-1.5382,-1.5423,-1.545,-1.5456,-1.5489,-1.5511,-1.5545,-1.5574,-1.5603,-1.5644,-1.5678,-1.5706,-1.574,-1.5758,-1.5762,-1.5766,-1.5765,-1.5769,-1.5741,-1.5732,-1.5763,-1.5763,-1.5763,-1.5763,-1.5762,-1.5762,-1.5348,-1.5388,-1.5403,-1.5455,-1.5477,-1.5515,-1.5533,-1.5558,-1.5581,-1.5627,-1.5656,-1.5674,-1.5703,-1.574,-1.5771,-1.5778,-1.579,-1.5793,-1.5801,-1.5774,-1.5771,-1.5768,-1.576,-1.5796,-1.5796,-1.5826,-1.5827,-1.5827]}]]